Sisseton, SD

12:58 PM CST on March 01, 2017 (GMT -0600)
Sisseton

Weather History for K8D3 - March, 2012

Change the Weather History Date:

Friday, March 30, 2012

  Actual Average Record
Temperature  
Mean Temperature 49 °F 36 °F  
Max Temperature 64 °F 47 °F 79 °F (1967)
Min Temperature 33 °F 26 °F -10 °F (1975)
Degree Days  
Heating Degree Days 16 29  
Month to date heating degree days 681 1056  
Since 1 July heating degree days 5938 7315  
Cooling Degree Days 0 0  
Month to date cooling degree days 7 0  
Year to date cooling degree days 7 0  
Moisture  
Dew Point 41 °F    
Average Humidity 70    
Maximum Humidity 100    
Minimum Humidity 39    
Precipitation  
Precipitation 0.00 in 0.06 in 0.48 in (2007)
Month to date precipitation 0.83 1.06  
Year to date precipitation 2.62 1.92  
Snow  
Snow 0.00 in - - ()
Month to date snowfall 2.1  
Since 1 July snowfall 20.9  
Snow Depth 0.00 in    
Sea Level Pressure  
Sea Level Pressure 29.76 in    
Wind  
Wind Speed 7 mph (East)    
Max Wind Speed 15 mph    
Max Gust Speed 18 mph    
T = Trace of Precipitation, MM = Missing Value Source: NWS Daily Summary

Daily Weather History Graph

Daily Weather History Graph

Search for Another Location

Airport or City:

Trip Planner

Search our weather history database for the weather conditions in past years. The results will help you decide how hot, cold, wet, or windy it might be!

Date:

Astronomy

Mar. 30, 2012 Rise Set
Actual Time 7:10 AM CDT 7:54 PM CDT
Civil Twilight 6:40 AM CDT 8:24 PM CDT
Nautical Twilight 6:05 AM CDT 9:00 PM CDT
Astronomical Twilight 5:28 AM CDT 9:37 PM CDT
Moon 12:03 PM CDT (3/30) 2:45 AM CDT (3/30)
Length of Visible Light 13h 43m
Length of Day
12h 43m
Waxing Crescent, 49% of the Moon is Illuminated
Mar 30
Waxing Crescent
Mar 30
First Quarter
Apr 6
Full
Apr 13
Last Quarter
Apr 21
New

Hourly Weather History & Observations

Time (CDT) Temp. Windchill Dew Point Humidity Pressure Visibility Wind Dir Wind Speed Gust Speed Precip Events Conditions
12:56 AM 46.0 °F 43.9 °F 45.0 °F 96% 29.77 in - NNW 4.6 mph - N/A   Unknown
1:56 AM 45.0 °F 39.7 °F 44.1 °F 97% 29.78 in - North 10.4 mph - N/A   Unknown
2:56 AM 42.1 °F 38.4 °F 41.0 °F 96% 29.78 in - North 5.8 mph - N/A   Unknown
3:56 AM 37.9 °F 33.5 °F 37.0 °F 97% 29.79 in - WNW 5.8 mph - N/A   Unknown
4:56 AM 36.0 °F 31.1 °F 35.1 °F 97% 29.78 in - NW 5.8 mph - N/A   Unknown
5:56 AM 35.1 °F 29.3 °F 34.0 °F 96% 29.78 in - NW 6.9 mph - N/A   Unknown
6:56 AM 34.0 °F - 33.1 °F 96% 29.79 in - Calm Calm - N/A   Unknown
7:56 AM 34.0 °F 31.0 °F 32.0 °F 92% 29.81 in - NW 3.5 mph - N/A   Unknown
8:56 AM 39.9 °F 37.8 °F 37.9 °F 93% 29.81 in - North 3.5 mph - N/A   Unknown
9:56 AM 46.9 °F - 41.0 °F 80% 29.81 in - NNE 6.9 mph - N/A   Unknown
10:56 AM 51.1 °F - 43.0 °F 74% 29.81 in - NE 4.6 mph - N/A   Unknown
11:56 AM 53.1 °F - 44.1 °F 71% 29.81 in - Variable 3.5 mph - N/A   Unknown
12:56 PM 55.0 °F - 46.9 °F 74% 29.78 in - ESE 4.6 mph - N/A   Unknown
1:56 PM 55.9 °F - 48.9 °F 77% 29.76 in - East 9.2 mph - N/A   Unknown
2:56 PM 59.0 °F - 46.9 °F 64% 29.73 in - SSE 6.9 mph - N/A   Unknown
3:56 PM 63.0 °F - 43.0 °F 48% 29.71 in - SE 8.1 mph - N/A   Unknown
4:56 PM 63.0 °F - 37.9 °F 40% 29.69 in - ESE 11.5 mph - N/A   Unknown
5:56 PM 63.0 °F - 37.0 °F 38% 29.75 in - ESE 6.9 mph - N/A   Unknown
6:56 PM 60.1 °F - 43.0 °F 53% 29.75 in - ESE 10.4 mph - N/A   Unknown
7:56 PM 53.1 °F - 43.0 °F 69% 29.74 in - ESE 9.2 mph - N/A   Unknown
8:56 PM 52.0 °F - 42.1 °F 69% 29.73 in - SSE 8.1 mph - N/A   Unknown
9:56 PM 50.0 °F - 42.1 °F 74% 29.73 in - South 4.6 mph - N/A   Unknown
10:56 PM 48.0 °F - 39.9 °F 74% 29.72 in - SSE 4.6 mph - N/A   Unknown
11:56 PM 45.0 °F 40.6 °F 39.0 °F 80% 29.73 in - SE 8.1 mph - N/A   Unknown